AKDT,Max TemperatureF,Mean TemperatureF,Min TemperatureF,Max Dew PointF,MeanDew PointF,Min DewpointF,Max Humidity, Mean Humidity, Min Humidity, Max Sea Level PressureIn, Mean Sea Level PressureIn, Min Sea Level PressureIn, Max VisibilityMiles, Mean VisibilityMiles, Min VisibilityMiles, Max Wind SpeedMPH, Mean Wind SpeedMPH, Max Gust SpeedMPH,PrecipitationIn, CloudCover, Events, WindDirDegrees
2013-6-1,53,48,44,43,41,39,87,76,58,30.22,30.18,30.16,10,10,10,14,6,,0.02,8,,252
2013-6-2,57,50,42,43,40,37,93,72,48,30.22,30.17,30.05,10,9,0,8,3,,0.03,8,,293
2013-6-3,57,50,44,37,36,34,76,58,41,30.04,29.88,29.72,10,10,10,14,6,16,0.00,8,,77
2013-6-4,55,48,41,45,39,36,87,72,51,29.83,29.72,29.67,10,10,9,9,4,,0.06,8,,223
2013-6-5,57,44,32,39,35,28,93,66,41,29.96,29.92,29.84,10,10,8,13,5,16,0.00,3,,327
2013-6-6,66,49,32,37,33,27,87,48,26,29.94,29.82,29.69,10,10,10,13,6,21,0.00,1,,36
2013-6-7,68,54,41,43,37,34,76,51,37,29.92,29.79,29.71,10,10,9,17,6,23,0.00,0,,251
2013-6-8,69,56,42,45,40,36,76,53,38,30.10,30.03,29.92,10,10,10,15,5,,0.00,2,,276
2013-6-9,71,56,42,46,41,36,81,52,33,30.19,30.17,30.11,10,10,10,14,4,16,0.00,0,,265
2013-6-10,68,54,41,45,41,34,81,55,40,30.23,30.19,30.11,10,10,10,14,4,,0.00,0,,273
2013-6-11,71,56,41,45,41,34,81,53,31,30.14,30.06,29.98,10,10,9,16,4,21,0.00,0,,291
2013-6-12,73,56,39,46,41,34,81,53,33,30.00,29.97,29.93,10,10,10,15,3,,0.00,0,,287
2013-6-13,60,50,41,45,40,34,87,66,48,30.18,30.06,29.98,10,10,10,16,7,16,0.00,0,,262
2013-6-14,64,50,35,46,42,32,87,68,49,30.26,30.22,30.18,10,10,6,13,4,,0.00,0,,288
2013-6-15,64,50,37,48,43,34,93,72,52,30.33,30.28,30.23,10,10,0,12,3,,0.00,1,,287
2013-6-16,78,58,39,52,45,36,87,60,34,30.24,30.19,30.11,10,10,10,10,3,,0.00,0,,285
2013-6-17,78,62,46,52,46,39,82,55,38,30.12,30.01,29.84,10,10,10,13,3,,0.00,0,,281
2013-6-18,75,62,48,52,47,39,82,56,36,29.92,29.83,29.79,10,10,10,15,5,17,0.00,0,,259
2013-6-19,68,57,46,46,44,39,76,57,43,30.00,29.91,29.84,10,10,10,16,5,25,0.00,3,,124
2013-6-20,57,50,44,46,43,37,82,73,63,30.04,30.00,29.99,10,10,10,13,4,16,0.00,4,,262
2013-6-21,55,50,46,41,40,39,76,68,58,30.10,30.08,30.04,10,10,10,12,7,,0.00,7,,271
2013-6-22,64,52,39,46,41,34,87,67,45,30.06,29.91,29.77,10,10,10,9,3,,0.00,5,,342
2013-6-23,66,57,48,48,45,43,93,67,43,29.77,29.69,29.63,10,10,7,10,2,17,0.01,5,,205
2013-6-24,64,57,50,50,47,43,82,67,52,29.68,29.65,29.62,10,10,10,13,4,16,0.00,3,,275
2013-6-25,71,56,42,54,47,39,87,65,50,29.63,29.61,29.59,10,10,10,9,2,,0.00,2,,286
2013-6-26,82,64,46,55,49,41,87,63,34,29.88,29.68,29.61,10,10,5,13,2,21,0.01,1,,238
2013-6-27,62,56,51,52,49,46,88,76,63,30.08,29.99,29.88,10,10,7,14,6,17,0.00,3,,252
2013-6-28,57,54,50,50,48,46,87,80,72,30.18,30.15,30.08,10,10,10,9,4,,0.04,8,,276
2013-6-29,66,58,51,52,48,45,88,73,59,30.14,30.06,30.00,10,10,10,12,3,,0.00,,,282
2013-6-30,59,55,51,48,46,43,88,73,63,30.05,29.97,29.85,10,10,9,13,5,17,0.00,,,262